Voltar ao catálogo

FENGYUN 1C DEB

AtivoPO
NORAD 37686·DEBRIS·🇨🇳 China

Lançado May 10, 1999 de Taiyuan Satellite Launch Center

Loading…

Próximas Passagens (próximas 24 horas)

TLE

EnvelhecendoSource: Space-Track

Época: Sep 5, 2026, 18:28 UTC

1 37686U 99025ELB 26248.76963510  .00000211  00000-0  30755-3 0  9991
2 37686  99.0211 241.7246 0396477  99.5258  72.3688 13.35566562641911

Acompanhe FENGYUN 1C DEB em tempo real com AllMySat

Download on the App Store